sat.trackr.live / text

‹ back to catalog

QIANFAN-142

NORAD 69088 · 2026-104R

PAYLOAD ACTIVE UNKNOWN

§ Identity

Operator
Country
PRC
Launch date
2026-05-12
Launch site
TAISC
Launch vehicle
Mass (kg)
RCS (m²)

External: N2YO · Heavens-Above · Gunter

§ Orbital elements

Epoch: 2026-05-24T23:10:40.107072Z

Period
101.17 min
Inclination
88.9871°
Eccentricity
0.0003550
Mean motion
14.23303746 rev/d
Perigee alt
811.6 km
Apogee alt
816.8 km
Semi-major
7,192.3 km
B*
3.0797e-5
RAAN
344.2660°
Arg perigee
136.1326°
Mean anomaly
224.0148°
Rev number
179

§ Raw data

QIANFAN-1421 69088U 26104R   26144.96574198  .00000084  00000+0  30797-4 0  99912 69088  88.9871 344.2660 0003550 136.1326 224.0148 14.23303746  1795

JSON: /api/v1/satellites/69088 · /tle

For live sub-satellite position, see the globe view (requires WebGL).

§ Visibility from observer

Set your observer location to see the next 7 days of passes ≥ 10°. The values pass through the URL so the page stays shareable.

No JS? Fill the form by hand. The geolocation button needs JavaScript.